Tracking 19795 objects as of 20-Jul-2019
HD Live streaming from Space Station
objects crossing your sky now

SCOUT G-1 DEB

Track SCOUT G-1 DEB now!
10-day predictions


NORAD ID: 18562
Int'l Code: 1987-080H
Perigee: 982.9 km
Apogee: 1,257.4 km
Inclination: 90.0 °
Period: 107.5 minutes
Semi major axis: 7491 km
RCS: 0.039 m2 (small)
Launch date: September 16, 1987
Source: United States (US)
Launch site: AIR FORCE WESTERN TEST RANGE (AFWTR)

Note: This is SATELLITE DEBRIS
aabbcc
Your satellite tracking list
Your tracking list is empty




NASA's NSSDC Master Catalog

Two Line Element Set (TLE):
1 18562U 87080H   19200.17253854 +.00000161 +00000-0 +25398-3 0  9990
2 18562 090.0039 165.5828 0183176 123.7030 297.6374 13.38994782552523
Source of the keplerian elements: AFSPC